Location: Newark
(39.0622°N, 106.5590°E)
Time: 23:25:51
(UTC+00:00)

Vanguard 2 Rocket - Pass Details

Date: 31 January 2020
Orbit: 553 x 3327 km, 32.9° (Epoch: 27 February)

Event Time Altitude Azimuth Distance (km) Brightness Sun altitude
Rises 18:24:43 0° 215° (SW) 3,368 - -62.5°
Reaches altitude 10° 18:28:44 10° 189° (S) 2,087 - -62.0°
Maximum altitude 18:30:53 13° 160° (SSE) 1,753 - -61.7°
Drops below altitude 10° 18:32:51 10° 131° (SE) 1,867 - -61.4°
Sets 18:36:02 0° 101° (E) 2,715 - -61.0°
